Prescott, AZ

11:56 PM MST on November 12, 2019 (GMT -0700)
Love

Weather History for KPRC - May, 2019

Change the Weather History Date:

Monday, May 27, 2019

  Actual Average Record
Temperature  
Mean Temperature 49 °F 65 °F  
Max Temperature 58 °F 80 °F 96 °F (2003)
Min Temperature 40 °F 49 °F 35 °F (1987)
Degree Days  
Heating Degree Days 16    
Month to date heating degree days 257  
Since 1 July heating degree days 4306  
Cooling Degree Days 0    
Month to date cooling degree days 0  
Year to date cooling degree days 1  
Moisture  
Dew Point 32 °F    
Average Humidity 53    
Maximum Humidity 85    
Minimum Humidity 30    
Precipitation  
Precipitation 0.02 in 0.01 in 0.21 in (1979)
Month to date precipitation 1.15 0.40  
Year to date precipitation 6.67 4.48  
Sea Level Pressure  
Sea Level Pressure 29.79 in    
Wind  
Wind Speed 11 mph ()    
Max Wind Speed 26 mph    
Max Gust Speed 32 mph    
Visibility 9.7 miles    
Events Rain    
T = Trace of Precipitation, MM = Missing Value Source: Averaged Metar Reports

Daily Weather History Graph

Daily Weather History Graph

Search for Another Location

Airport or City:

Astronomy

May. 27, 2019 Rise Set
Actual Time 5:19 AM MST 7:34 PM MST
Civil Twilight 4:51 AM MST 8:03 PM MST
Nautical Twilight 4:15 AM MST 8:38 PM MST
Astronomical Twilight 3:37 AM MST 9:16 PM MST
Moon 1:44 AM MST (5/27) 1:10 PM MST (5/27)
Length of Visible Light 15h 11m
Length of Day
14h 14m
Last Quarter, 40% of the Moon is Illuminated
May 27
Last Quarter
Jun 3
New
Jun 9
First Quarter
Jun 17
Full
Jun 25
Last Quarter

Hourly Weather History & Observations

Time (MST) Temp. Windchill Dew Point Humidity Pressure Visibility Wind Dir Wind Speed Gust Speed Precip Events Conditions
12:53 AM 52.0 °F - 39.0 °F 61% 29.70 in 10.0 mi SSW 13.8 mph 23.0 mph N/A   Clear
1:53 AM 51.1 °F - 37.9 °F 61% 29.70 in 10.0 mi SSW 13.8 mph 20.7 mph N/A   Clear
2:53 AM 50.0 °F - 37.0 °F 61% 29.69 in 10.0 mi SSW 10.4 mph - N/A   Clear
3:53 AM 48.0 °F - 37.0 °F 66% 29.69 in 10.0 mi South 10.4 mph - N/A   Clear
4:53 AM 48.0 °F - 36.0 °F 63% 29.69 in 10.0 mi South 9.2 mph - N/A   Clear
5:53 AM 48.0 °F - 37.0 °F 66% 29.69 in 10.0 mi South 8.1 mph - N/A   Mostly Cloudy
6:33 AM 46.9 °F - 37.9 °F 71% 29.85 in 10.0 mi SSW 17.3 mph 24.2 mph 0.00 in Rain Light Rain
6:53 AM 45.0 °F 38.9 °F 37.9 °F 76% 29.73 in 5.0 mi SSW 12.7 mph 25.3 mph 0.00 in Rain Light Rain
7:53 AM 44.1 °F 37.1 °F 39.9 °F 85% 29.75 in 8.0 mi SW 15.0 mph 21.9 mph 0.02 in Rain Light Rain
8:53 AM 46.9 °F - 36.0 °F 66% 29.75 in 10.0 mi SSW 13.8 mph 27.6 mph 0.00 in   Mostly Cloudy
9:53 AM 51.1 °F - 33.1 °F 50% 29.76 in 10.0 mi SW 20.7 mph - 0.00 in   Mostly Cloudy
10:53 AM 53.1 °F - 30.0 °F 41% 29.78 in 10.0 mi SW 21.9 mph 28.8 mph N/A   Mostly Cloudy
11:53 AM 54.0 °F - 28.0 °F 37% 29.79 in 10.0 mi WSW 18.4 mph 27.6 mph N/A   Mostly Cloudy
12:53 PM 54.0 °F - 28.9 °F 38% 29.81 in 10.0 mi SW 15.0 mph - N/A   Mostly Cloudy
1:53 PM 55.9 °F - 28.9 °F 36% 29.81 in 10.0 mi SW 17.3 mph 24.2 mph N/A   Mostly Cloudy
2:53 PM 55.9 °F - 28.0 °F 34% 29.81 in 10.0 mi SSW 11.5 mph 23.0 mph N/A   Mostly Cloudy
3:53 PM 57.9 °F - 28.0 °F 32% 29.81 in 10.0 mi West 17.3 mph 24.2 mph N/A   Mostly Cloudy
4:53 PM 57.0 °F - 27.0 °F 32% 29.81 in 10.0 mi West 13.8 mph 18.4 mph N/A   Mostly Cloudy
5:53 PM 55.9 °F - 27.0 °F 33% 29.82 in 10.0 mi SW 10.4 mph - N/A   Mostly Cloudy
6:53 PM 54.0 °F - 28.0 °F 37% 29.84 in 10.0 mi SW 8.1 mph - N/A   Partly Cloudy
7:53 PM 50.0 °F - 28.0 °F 43% 29.86 in 10.0 mi WSW 5.8 mph - N/A   Clear
8:53 PM 46.9 °F - 28.9 °F 50% 29.88 in 10.0 mi SW 5.8 mph - N/A   Clear
9:53 PM 45.0 °F 42.6 °F 30.9 °F 58% 29.88 in 10.0 mi SSW 4.6 mph - N/A   Clear
10:53 PM 42.1 °F 38.4 °F 30.9 °F 65% 29.88 in 10.0 mi South 5.8 mph - N/A   Clear
11:53 PM 41.0 °F 36.4 °F 30.9 °F 67% 29.86 in 10.0 mi South 6.9 mph - N/A   Clear